| time (UTC) | temp F | wind direction | speed MPH | gust MPH | rain 1hr in | rain 24hr in | rain mn in | humidity % | barometer mb |
| 20260906111040 | 67 | 83 | 0.0 | 2.0 | 0.00 | 0.00 | 0.00 | 80 | 1011.1 |
| 20260906110540 | 67 | 79 | 0.0 | 2.0 | 0.00 | 0.00 | 0.00 | 80 | 1011.1 |
| 20260906105538 | 67 | 56 | 0.0 | 2.0 | 0.00 | 0.00 | 0.00 | 80 | 1011.0 |
| 20260906105040 | 67 | 50 | 0.0 | 2.0 | 0.00 | 0.00 | 0.00 | 80 | 1010.9 |
| 20260906104537 | 67 | 105 | 0.0 | 2.0 | 0.00 | 0.00 | 0.00 | 80 | 1010.8 |
| 20260906104034 | 67 | 89 | 0.0 | 2.0 | 0.00 | 0.00 | 0.00 | 79 | 1010.7 |
| 20260906103036 | 67 | 84 | 0.0 | 1.0 | 0.00 | 0.00 | 0.00 | 79 | 1010.6 |
| 20260906102035 | 67 | 48 | 0.0 | 1.0 | 0.00 | 0.00 | 0.00 | 78 | 1010.4 |
| 20260906101528 | 67 | 71 | 0.0 | 3.0 | 0.00 | 0.00 | 0.00 | 78 | 1010.3 |
| 20260906101030 | 67 | 36 | 0.0 | 3.0 | 0.00 | 0.00 | 0.00 | 78 | 1010.3 |
| 20260906100527 | 68 | 104 | 0.0 | 2.0 | 0.00 | 0.00 | 0.00 | 78 | 1010.2 |
| 20260906100029 | 68 | 80 | 0.0 | 1.0 | 0.00 | 0.00 | 0.00 | 78 | 1010.2 |
| 20260906095528 | 68 | 5 | 0.0 | 1.0 | 0.00 | 0.00 | 0.00 | 78 | 1010.1 |
| 20260906095029 | 68 | 96 | 0.0 | 2.0 | 0.00 | 0.00 | 0.00 | 77 | 1010.1 |
| 20260906094525 | 68 | 115 | 0.0 | 2.0 | 0.00 | 0.00 | 0.00 | 78 | 1010.0 |
| 20260906094026 | 68 | 95 | 0.0 | 2.0 | 0.00 | 0.00 | 0.00 | 78 | 1010.0 |
| 20260906093525 | 67 | 62 | 0.0 | 2.0 | 0.00 | 0.00 | 0.00 | 78 | 1010.1 |
| 20260906092525 | 68 | 89 | 0.0 | 3.0 | 0.00 | 0.00 | 0.00 | 77 | 1009.9 |
| 20260906092024 | 68 | 46 | 0.0 | 2.0 | 0.00 | 0.00 | 0.00 | 76 | 1009.8 |
| 20260906091021 | 69 | 95 | 0.0 | 4.0 | 0.00 | 0.00 | 0.00 | 76 | 1009.7 |
| 20260906090522 | 69 | 101 | 0.0 | 4.0 | 0.00 | 0.00 | 0.00 | 75 | 1009.5 |
| 20260906090022 | 69 | 36 | 1.0 | 4.0 | 0.00 | 0.00 | 0.00 | 75 | 1009.6 |
| 20260906085521 | 69 | 77 | 2.0 | 7.0 | 0.00 | 0.00 | 0.00 | 75 | 1009.6 |
| 20260906085022 | 69 | 22 | 1.0 | 7.0 | 0.00 | 0.00 | 0.00 | 75 | 1009.5 |
| 20260906084023 | 69 | 84 | 1.0 | 5.0 | 0.00 | 0.00 | 0.00 | 74 | 1009.4 |
| 20260906083519 | 69 | 30 | 1.0 | 4.0 | 0.00 | 0.00 | 0.00 | 74 | 1009.4 |
| 20260906082520 | 69 | 12 | 1.0 | 6.0 | 0.00 | 0.00 | 0.00 | 74 | 1009.4 |
| 20260906082019 | 69 | 107 | 1.0 | 6.0 | 0.00 | 0.00 | 0.00 | 74 | 1009.4 |
| 20260906081020 | 70 | 5 | 1.0 | 6.0 | 0.00 | 0.00 | 0.00 | 74 | 1009.4 |
| 20260906080520 | 70 | 25 | 1.0 | 6.0 | 0.00 | 0.00 | 0.00 | 74 | 1009.3 |
| 20260906080018 | 70 | 12 | 2.0 | 6.0 | 0.00 | 0.00 | 0.00 | 74 | 1009.3 |
| 20260906075518 | 70 | 82 | 1.0 | 6.0 | 0.00 | 0.00 | 0.00 | 74 | 1009.3 |
| 20260906075018 | 70 | 13 | 1.0 | 5.0 | 0.00 | 0.00 | 0.00 | 74 | 1009.3 |
| 20260906074516 | 70 | 11 | 0.0 | 4.0 | 0.00 | 0.00 | 0.00 | 74 | 1009.2 |
| 20260906074018 | 70 | 68 | 0.0 | 2.0 | 0.00 | 0.00 | 0.00 | 73 | 1009.2 |
| 20260906073516 | 70 | 94 | 0.0 | 3.0 | 0.00 | 0.00 | 0.00 | 73 | 1009.2 |
| 20260906072514 | 70 | 79 | 2.0 | 6.0 | 0.00 | 0.00 | 0.00 | 73 | 1009.2 |
| 20260906072010 | 70 | 55 | 2.0 | 6.0 | 0.00 | 0.00 | 0.00 | 72 | 1009.2 |
| 20260906071012 | 70 | 45 | 1.0 | 3.0 | 0.00 | 0.00 | 0.00 | 73 | 1009.2 |
| 20260906070509 | 70 | 99 | 1.0 | 2.0 | 0.00 | 0.00 | 0.00 | 73 | 1009.2 |
| 20260906070012 | 71 | 93 | 0.0 | 3.0 | 0.00 | 0.00 | 0.00 | 72 | 1009.2 |
| 20260906065507 | 71 | 102 | 1.0 | 5.0 | 0.00 | 0.00 | 0.00 | 73 | 1009.2 |
| 20260906065005 | 71 | 75 | 2.0 | 5.0 | 0.00 | 0.00 | 0.00 | 72 | 1009.2 |
| 20260906064505 | 71 | 86 | 1.0 | 6.0 | 0.00 | 0.00 | 0.00 | 72 | 1009.1 |
| 20260906064005 | 71 | 83 | 1.0 | 6.0 | 0.00 | 0.00 | 0.00 | 72 | 1009.1 |
| 20260906063004 | 71 | 89 | 1.0 | 6.0 | 0.00 | 0.00 | 0.00 | 72 | 1009.3 |
| 20260906062456 | 71 | 86 | 1.0 | 6.0 | 0.00 | 0.00 | 0.00 | 73 | 1009.3 |
| 20260906061457 | 71 | 44 | 0.0 | 1.0 | 0.00 | 0.00 | 0.00 | 74 | 1009.3 |
| 20260906060955 | 71 | 96 | 0.0 | 1.0 | 0.00 | 0.00 | 0.00 | 74 | 1009.3 |
| 20260906060453 | 71 | 96 | 0.0 | 1.0 | 0.00 | 0.00 | 0.00 | 73 | 1009.3 |
| 20260906055451 | 72 | 96 | 0.0 | 2.0 | 0.00 | 0.00 | 0.00 | 72 | 1009.2 |
| 20260906054948 | 72 | 93 | 0.0 | 2.0 | 0.00 | 0.00 | 0.00 | 71 | 1009.1 |
| 20260906054444 | 73 | 40 | 0.0 | 1.0 | 0.00 | 0.00 | 0.00 | 70 | 1009.1 |
| 20260906053936 | 73 | 69 | 0.0 | 5.0 | 0.00 | 0.00 | 0.00 | 69 | 1009.1 |
| 20260906052938 | 73 | 87 | 1.0 | 5.0 | 0.00 | 0.00 | 0.00 | 69 | 1009.2 |
| 20260906052438 | 73 | 70 | 1.0 | 5.0 | 0.00 | 0.00 | 0.00 | 68 | 1009.2 |
| 20260906051937 | 73 | 36 | 0.0 | 4.0 | 0.00 | 0.00 | 0.00 | 68 | 1009.3 |
| 20260906051436 | 74 | 101 | 0.0 | 3.0 | 0.00 | 0.00 | 0.00 | 68 | 1009.4 |
| 20260906050938 | 74 | 57 | 0.0 | 3.0 | 0.00 | 0.00 | 0.00 | 67 | 1009.4 |
| 20260906050437 | 74 | 358 | 0.0 | 3.0 | 0.00 | 0.00 | 0.00 | 67 | 1009.3 |
| 20260906045938 | 74 | 58 | 0.0 | 3.0 | 0.00 | 0.00 | 0.00 | 67 | 1009.5 |
| 20260906045434 | 74 | 19 | 0.0 | 0.0 | 0.00 | 0.00 | 0.00 | 68 | 1009.5 |
| 20260906044935 | 74 | 19 | 0.0 | 0.0 | 0.00 | 0.00 | 0.00 | 68 | 1009.5 |
| 20260906044434 | 74 | 18 | 0.0 | 2.0 | 0.00 | 0.00 | 0.00 | 67 | 1009.5 |
| 20260906043933 | 74 | 32 | 0.0 | 2.0 | 0.00 | 0.00 | 0.00 | 67 | 1009.6 |
| 20260906043435 | 74 | 97 | 0.0 | 2.0 | 0.00 | 0.00 | 0.00 | 67 | 1009.7 |
| 20260906042933 | 75 | 27 | 0.0 | 2.0 | 0.00 | 0.00 | 0.00 | 67 | 1009.6 |
| 20260906042432 | 75 | 95 | 0.0 | 1.0 | 0.00 | 0.00 | 0.00 | 67 | 1009.7 |
| 20260906041931 | 75 | 44 | 0.0 | 3.0 | 0.00 | 0.00 | 0.00 | 67 | 1009.6 |
| 20260906040931 | 75 | 353 | 0.0 | 2.0 | 0.00 | 0.00 | 0.00 | 66 | 1009.6 |
| 20260906035429 | 76 | 64 | 0.0 | 4.0 | 0.00 | 0.00 | 0.00 | 65 | 1009.5 |
| 20260906034927 | 76 | 95 | 0.0 | 2.0 | 0.00 | 0.00 | 0.00 | 64 | 1009.5 |
| 20260906033920 | 76 | 60 | 0.0 | 2.0 | 0.00 | 0.00 | 0.00 | 64 | 1009.5 |
| 20260906031918 | 76 | 37 | 1.0 | 4.0 | 0.00 | 0.00 | 0.00 | 65 | 1009.6 |
| 20260906031417 | 76 | 30 | 0.0 | 3.0 | 0.00 | 0.00 | 0.00 | 66 | 1009.6 |
| 20260906030917 | 76 | 6 | 0.0 | 0.0 | 0.00 | 0.00 | 0.00 | 67 | 1009.6 |
| 20260906030411 | 76 | 6 | 0.0 | 0.0 | 0.00 | 0.00 | 0.00 | 66 | 1009.6 |
| 20260906025905 | 76 | 6 | 0.0 | 0.0 | 0.00 | 0.00 | 0.00 | 66 | 1009.6 |
| 20260906024858 | 77 | 107 | 0.0 | 3.0 | 0.00 | 0.00 | 0.00 | 65 | 1009.4 |
| 20260906024358 | 77 | 95 | 0.0 | 3.0 | 0.00 | 0.00 | 0.00 | 65 | 1009.5 |
| 20260906023858 | 77 | 91 | 1.0 | 3.0 | 0.00 | 0.00 | 0.00 | 64 | 1009.5 |
| 20260906023400 | 77 | 101 | 1.0 | 3.0 | 0.00 | 0.00 | 0.00 | 64 | 1009.5 |
| 20260906022355 | 77 | 96 | 0.0 | 3.0 | 0.00 | 0.00 | 0.00 | 63 | 1009.4 |
| 20260906021856 | 78 | 91 | 0.0 | 4.0 | 0.00 | 0.00 | 0.00 | 63 | 1009.4 |
| 20260906021355 | 78 | 86 | 1.0 | 4.0 | 0.00 | 0.00 | 0.00 | 63 | 1009.3 |
| 20260906020857 | 78 | 98 | 0.0 | 3.0 | 0.00 | 0.00 | 0.00 | 63 | 1009.4 |
| 20260906020357 | 78 | 86 | 0.0 | 2.0 | 0.00 | 0.00 | 0.00 | 64 | 1009.5 |
| 20260906015852 | 78 | 94 | 0.0 | 2.0 | 0.00 | 0.00 | 0.00 | 64 | 1009.4 |
| 20260906015352 | 78 | 30 | 0.0 | 3.0 | 0.00 | 0.00 | 0.00 | 64 | 1009.3 |
| 20260906014852 | 78 | 33 | 1.0 | 4.0 | 0.00 | 0.00 | 0.00 | 64 | 1009.3 |
| 20260906014352 | 78 | 46 | 1.0 | 5.0 | 0.00 | 0.00 | 0.00 | 64 | 1009.3 |
| 20260906013853 | 78 | 115 | 1.0 | 5.0 | 0.00 | 0.00 | 0.00 | 64 | 1009.1 |
| 20260906012853 | 78 | 85 | 1.0 | 6.0 | 0.00 | 0.00 | 0.00 | 67 | 1009.0 |
| 20260906012351 | 78 | 97 | 0.0 | 0.0 | 0.00 | 0.00 | 0.00 | 70 | 1009.0 |
| 20260906011851 | 78 | 91 | 0.0 | 1.0 | 0.00 | 0.00 | 0.00 | 71 | 1008.9 |
| 20260906010854 | 78 | 120 | 0.0 | 3.0 | 0.00 | 0.00 | 0.00 | 71 | 1008.8 |
| 20260906005853 | 78 | 98 | 0.0 | 3.0 | 0.00 | 0.00 | 0.00 | 73 | 1008.7 |
| 20260906005351 | 78 | 99 | 0.0 | 3.0 | 0.00 | 0.00 | 0.00 | 73 | 1008.7 |
| 20260906004852 | 78 | 84 | 0.0 | 3.0 | 0.00 | 0.00 | 0.00 | 73 | 1008.7 |
| 20260906003853 | 78 | 83 | 0.0 | 1.0 | 0.00 | 0.00 | 0.00 | 72 | 1008.5 |
| 20260906003352 | 78 | 69 | 0.0 | 1.0 | 0.00 | 0.00 | 0.00 | 72 | 1008.5 |
| 20260906002853 | 78 | 208 | 0.0 | 0.0 | 0.00 | 0.00 | 0.00 | 72 | 1008.4 |
| 20260906002353 | 78 | 204 | 0.0 | 1.0 | 0.00 | 0.00 | 0.00 | 72 | 1008.5 |
| 20260906000849 | 79 | 208 | 0.0 | 3.0 | 0.00 | 0.00 | 0.00 | 71 | 1008.3 |
| 20260906000348 | 79 | 191 | 1.0 | 4.0 | 0.00 | 0.00 | 0.00 | 71 | 1008.3 |
| 20260905235848 | 80 | 155 | 2.0 | 5.0 | 0.00 | 0.00 | 0.00 | 70 | 1008.3 |
| 20260905235348 | 80 | 66 | 2.0 | 6.0 | 0.00 | 0.00 | 0.00 | 67 | 1008.2 |
| 20260905234848 | 81 | 32 | 2.0 | 7.0 | 0.00 | 0.00 | 0.00 | 63 | 1008.1 |
| 20260905234344 | 81 | 342 | 2.0 | 7.0 | 0.00 | 0.00 | 0.00 | 62 | 1008.0 |
| 20260905233345 | 81 | 33 | 1.0 | 6.0 | 0.00 | 0.00 | 0.00 | 62 | 1007.9 |
| 20260905232844 | 81 | 36 | 2.0 | 9.0 | 0.00 | 0.00 | 0.00 | 62 | 1007.8 |
| 20260905232345 | 81 | 79 | 3.0 | 9.0 | 0.00 | 0.00 | 0.00 | 61 | 1007.8 |
| 20260905231846 | 81 | 89 | 1.0 | 7.0 | 0.00 | 0.00 | 0.00 | 62 | 1007.8 |
| 20260905231344 | 81 | 52 | 1.0 | 5.0 | 0.00 | 0.00 | 0.00 | 63 | 1007.8 |
| 20260905230844 | 81 | 90 | 1.0 | 6.0 | 0.00 | 0.00 | 0.00 | 62 | 1007.7 |
| 20260905230344 | 81 | 101 | 1.0 | 6.0 | 0.00 | 0.00 | 0.00 | 62 | 1007.7 |
| 20260905225844 | 82 | 96 | 1.0 | 5.0 | 0.00 | 0.00 | 0.00 | 62 | 1007.7 |
| 20260905224839 | 82 | 37 | 1.0 | 5.0 | 0.00 | 0.00 | 0.00 | 62 | 1007.7 |
| 20260905224339 | 82 | 115 | 1.0 | 6.0 | 0.00 | 0.00 | 0.00 | 61 | 1007.6 |
| 20260905223832 | 82 | 68 | 2.0 | 6.0 | 0.00 | 0.00 | 0.00 | 61 | 1007.6 |
| 20260905223329 | 83 | 71 | 2.0 | 6.0 | 0.00 | 0.00 | 0.00 | 60 | 1007.5 |
| 20260905222830 | 83 | 52 | 1.0 | 6.0 | 0.00 | 0.00 | 0.00 | 60 | 1007.6 |
| 20260905222329 | 84 | 32 | 0.0 | 5.0 | 0.00 | 0.00 | 0.00 | 61 | 1007.7 |
| 20260905221828 | 83 | 86 | 1.0 | 7.0 | 0.00 | 0.00 | 0.00 | 60 | 1007.5 |
| 20260905220825 | 83 | 54 | 2.0 | 7.0 | 0.00 | 0.00 | 0.00 | 60 | 1007.4 |
| 20260905215824 | 83 | 99 | 1.0 | 7.0 | 0.00 | 0.00 | 0.00 | 61 | 1007.3 |
| 20260905215324 | 83 | 15 | 2.0 | 7.0 | 0.00 | 0.00 | 0.00 | 61 | 1007.4 |
| 20260905214318 | 83 | 111 | 1.0 | 5.0 | 0.00 | 0.00 | 0.00 | 61 | 1007.2 |
| 20260905213317 | 82 | 112 | 1.0 | 6.0 | 0.00 | 0.00 | 0.00 | 61 | 1007.0 |
| 20260905212815 | 82 | 11 | 1.0 | 6.0 | 0.00 | 0.00 | 0.00 | 61 | 1007.2 |
| 20260905211307 | 83 | 351 | 1.0 | 6.0 | 0.00 | 0.00 | 0.00 | 60 | 1006.9 |
| 20260905210809 | 83 | 97 | 1.0 | 6.0 | 0.00 | 0.00 | 0.00 | 60 | 1006.8 |
| 20260905210305 | 83 | 6 | 1.0 | 3.0 | 0.00 | 0.01 | 0.00 | 60 | 1006.9 |
| 20260905205806 | 83 | 29 | 1.0 | 9.0 | 0.00 | 0.01 | 0.00 | 61 | 1006.9 |
| 20260905205306 | 83 | 79 | 1.0 | 9.0 | 0.00 | 0.01 | 0.00 | 60 | 1006.9 |
| 20260905204806 | 83 | 304 | 2.0 | 9.0 | 0.00 | 0.02 | 0.00 | 61 | 1006.9 |
| 20260905204305 | 83 | 340 | 2.0 | 9.0 | 0.00 | 0.02 | 0.00 | 60 | 1006.9 |
| 20260905203804 | 83 | 108 | 2.0 | 9.0 | 0.00 | 0.02 | 0.00 | 60 | 1006.8 |
| 20260905203303 | 83 | 45 | 2.0 | 9.0 | 0.00 | 0.02 | 0.00 | 60 | 1007.0 |
| 20260905202803 | 83 | 66 | 4.0 | 10.0 | 0.00 | 0.02 | 0.00 | 62 | 1007.0 |
| 20260905202306 | 83 | 58 | 4.0 | 11.0 | 0.00 | 0.02 | 0.00 | 61 | 1007.1 |
| 20260905201803 | 84 | 104 | 3.0 | 11.0 | 0.00 | 0.02 | 0.00 | 62 | 1007.0 |
| 20260905201302 | 84 | 48 | 3.0 | 9.0 | 0.00 | 0.02 | 0.00 | 61 | 1007.0 |
| 20260905200803 | 84 | 32 | 3.0 | 13.0 | 0.00 | 0.02 | 0.00 | 61 | 1007.0 |
| 20260905200303 | 84 | 11 | 4.0 | 13.0 | 0.00 | 0.02 | 0.00 | 62 | 1007.1 |
| 20260905195801 | 84 | 40 | 4.0 | 10.0 | 0.00 | 0.02 | 0.00 | 61 | 1007.2 |
| 20260905194803 | 85 | 47 | 2.0 | 6.0 | 0.00 | 0.02 | 0.00 | 61 | 1007.1 |
| 20260905194300 | 85 | 66 | 2.0 | 8.0 | 0.00 | 0.02 | 0.00 | 59 | 1007.1 |
| 20260905193800 | 85 | 39 | 2.0 | 10.0 | 0.00 | 0.02 | 0.00 | 60 | 1007.2 |
| 20260905193300 | 85 | 32 | 1.0 | 10.0 | 0.00 | 0.02 | 0.00 | 61 | 1007.1 |
| 20260905192800 | 84 | 78 | 2.0 | 9.0 | 0.00 | 0.02 | 0.00 | 62 | 1007.0 |
| 20260905192305 | 83 | 95 | 2.0 | 10.0 | 0.00 | 0.02 | 0.00 | 63 | 1007.1 |
| 20260905191751 | 83 | 38 | 2.0 | 10.0 | 0.00 | 0.02 | 0.00 | 63 | 1007.1 |
| 20260905191243 | 83 | 163 | 3.0 | 9.0 | 0.00 | 0.02 | 0.00 | 64 | 1007.3 |
| 20260905190744 | 83 | 69 | 3.0 | 9.0 | 0.00 | 0.02 | 0.00 | 64 | 1007.3 |
| 20260905190243 | 83 | 75 | 3.0 | 9.0 | 0.00 | 0.02 | 0.00 | 65 | 1007.3 |
| 20260905185745 | 82 | 60 | 4.0 | 11.0 | 0.00 | 0.02 | 0.00 | 65 | 1007.4 |
| 20260905185244 | 83 | 40 | 3.0 | 11.0 | 0.00 | 0.02 | 0.00 | 64 | 1007.4 |
| 20260905184742 | 83 | 347 | 3.0 | 10.0 | 0.00 | 0.02 | 0.00 | 64 | 1007.3 |
| 20260905184243 | 83 | 13 | 3.0 | 10.0 | 0.00 | 0.02 | 0.00 | 63 | 1007.5 |
| 20260905183240 | 83 | 6 | 3.0 | 8.0 | 0.00 | 0.02 | 0.00 | 64 | 1007.7 |
| 20260905182739 | 83 | 105 | 2.0 | 8.0 | 0.00 | 0.02 | 0.00 | 64 | 1007.8 |
| 20260905182240 | 83 | 44 | 1.0 | 6.0 | 0.00 | 0.02 | 0.00 | 64 | 1007.7 |
| 20260905181741 | 83 | 94 | 1.0 | 6.0 | 0.00 | 0.02 | 0.00 | 65 | 1007.7 |
| 20260905181235 | 83 | 59 | 1.0 | 6.0 | 0.00 | 0.02 | 0.00 | 64 | 1007.8 |
| 20260905180736 | 83 | 63 | 1.0 | 5.0 | 0.00 | 0.02 | 0.00 | 66 | 1007.9 |
| 20260905180235 | 83 | 180 | 1.0 | 5.0 | 0.00 | 0.02 | 0.00 | 66 | 1008.0 |
| 20260905175736 | 82 | 87 | 2.0 | 6.0 | 0.00 | 0.02 | 0.00 | 66 | 1008.1 |
| 20260905174736 | 83 | 40 | 1.0 | 5.0 | 0.00 | 0.02 | 0.00 | 65 | 1008.3 |
| 20260905174236 | 84 | 83 | 1.0 | 4.0 | 0.00 | 0.02 | 0.00 | 64 | 1008.3 |
| 20260905173729 | 83 | 82 | 1.0 | 5.0 | 0.00 | 0.02 | 0.00 | 64 | 1008.2 |
| 20260905173227 | 83 | 8 | 1.0 | 5.0 | 0.00 | 0.02 | 0.00 | 64 | 1008.3 |
| 20260905172727 | 83 | 332 | 1.0 | 4.0 | 0.00 | 0.02 | 0.00 | 64 | 1008.4 |
| 20260905172228 | 83 | 321 | 1.0 | 4.0 | 0.00 | 0.02 | 0.00 | 65 | 1008.5 |
| 20260905171729 | 83 | 25 | 1.0 | 4.0 | 0.00 | 0.02 | 0.00 | 66 | 1008.6 |
| 20260905171228 | 83 | 94 | 1.0 | 4.0 | 0.00 | 0.02 | 0.00 | 67 | 1008.6 |
| 20260905170724 | 83 | 120 | 1.0 | 6.0 | 0.00 | 0.02 | 0.00 | 66 | 1008.7 |
| 20260905170224 | 83 | 36 | 0.0 | 6.0 | 0.00 | 0.02 | 0.00 | 66 | 1008.7 |
| 20260905165724 | 83 | 211 | 1.0 | 7.0 | 0.00 | 0.02 | 0.00 | 66 | 1008.8 |
| 20260905165224 | 83 | 219 | 1.0 | 7.0 | 0.00 | 0.02 | 0.00 | 66 | 1008.8 |
| 20260905164221 | 82 | 72 | 2.0 | 8.0 | 0.00 | 0.02 | 0.00 | 66 | 1008.6 |
| 20260905163715 | 82 | 22 | 1.0 | 8.0 | 0.00 | 0.02 | 0.00 | 65 | 1008.7 |
| 20260905163215 | 82 | 337 | 2.0 | 6.0 | 0.00 | 0.02 | 0.00 | 66 | 1008.7 |
| 20260905162714 | 82 | 353 | 2.0 | 7.0 | 0.00 | 0.02 | 0.00 | 67 | 1008.8 |
| 20260905162215 | 81 | 320 | 2.0 | 7.0 | 0.00 | 0.02 | 0.00 | 68 | 1008.9 |
| 20260905161715 | 82 | 342 | 1.0 | 7.0 | 0.00 | 0.02 | 0.00 | 70 | 1008.9 |
| 20260905161214 | 82 | 316 | 1.0 | 5.0 | 0.00 | 0.02 | 0.00 | 70 | 1009.0 |
| 20260905160709 | 81 | 212 | 2.0 | 5.0 | 0.00 | 0.02 | 0.00 | 71 | 1009.1 |
| 20260905160209 | 81 | 352 | 1.0 | 5.0 | 0.00 | 0.02 | 0.00 | 71 | 1009.1 |
| 20260905155708 | 81 | 256 | 1.0 | 3.0 | 0.00 | 0.02 | 0.00 | 70 | 1009.1 |
| 20260905154706 | 80 | 32 | 1.0 | 3.0 | 0.00 | 0.02 | 0.00 | 71 | 1009.1 |
| 20260905154205 | 80 | 34 | 0.0 | 3.0 | 0.00 | 0.02 | 0.00 | 71 | 1009.1 |
| 20260905153702 | 80 | 97 | 1.0 | 3.0 | 0.00 | 0.02 | 0.00 | 71 | 1009.1 |
| 20260905153159 | 80 | 45 | 1.0 | 3.0 | 0.00 | 0.02 | 0.00 | 70 | 1009.2 |
| 20260905152701 | 80 | 309 | 0.0 | 3.0 | 0.00 | 0.02 | 0.00 | 70 | 1009.3 |
| 20260905151658 | 80 | 135 | 0.0 | 3.0 | 0.00 | 0.02 | 0.00 | 70 | 1009.5 |
| 20260905151159 | 81 | 80 | 0.0 | 3.0 | 0.00 | 0.02 | 0.00 | 69 | 1009.5 |
| 20260905150150 | 80 | 99 | 1.0 | 4.0 | 0.00 | 0.02 | 0.00 | 70 | 1009.4 |
| 20260905145649 | 80 | 86 | 1.0 | 4.0 | 0.00 | 0.02 | 0.00 | 70 | 1009.5 |
| 20260905145149 | 80 | 112 | 0.0 | 3.0 | 0.00 | 0.02 | 0.00 | 71 | 1009.4 |
| 20260905144650 | 80 | 18 | 1.0 | 3.0 | 0.00 | 0.02 | 0.00 | 72 | 1009.3 |
| 20260905143649 | 80 | 101 | 1.0 | 4.0 | 0.00 | 0.02 | 0.00 | 71 | 1009.4 |
| 20260905143148 | 80 | 68 | 2.0 | 6.0 | 0.00 | 0.02 | 0.00 | 72 | 1009.3 |
| 20260905142644 | 80 | 86 | 2.0 | 6.0 | 0.00 | 0.02 | 0.00 | 71 | 1009.3 |
| 20260905142144 | 80 | 148 | 2.0 | 6.0 | 0.00 | 0.02 | 0.00 | 72 | 1009.2 |
| 20260905141643 | 80 | 62 | 3.0 | 10.0 | 0.00 | 0.02 | 0.00 | 72 | 1009.0 |
| 20260905141145 | 80 | 98 | 4.0 | 10.0 | 0.00 | 0.02 | 0.00 | 72 | 1009.0 |
| 20260905140645 | 80 | 64 | 4.0 | 10.0 | 0.00 | 0.02 | 0.00 | 71 | 1008.8 |
| 20260905140137 | 80 | 129 | 4.0 | 9.0 | 0.00 | 0.02 | 0.00 | 72 | 1008.8 |
| 20260905135639 | 80 | 108 | 3.0 | 9.0 | 0.00 | 0.02 | 0.00 | 73 | 1008.7 |
| 20260905134136 | 79 | 22 | 4.0 | 9.0 | 0.00 | 0.02 | 0.00 | 75 | 1008.6 |
| 20260905133638 | 79 | 19 | 4.0 | 9.0 | 0.00 | 0.02 | 0.00 | 76 | 1008.7 |
| 20260905133134 | 78 | 15 | 3.0 | 9.0 | 0.00 | 0.02 | 0.00 | 77 | 1008.7 |
| 20260905132633 | 78 | 96 | 2.0 | 6.0 | 0.00 | 0.02 | 0.00 | 79 | 1008.7 |
| 20260905132130 | 78 | 22 | 2.0 | 9.0 | 0.00 | 0.02 | 0.00 | 79 | 1008.8 |
| 20260905131630 | 77 | 93 | 3.0 | 9.0 | 0.00 | 0.02 | 0.00 | 80 | 1008.7 |
| 20260905131131 | 77 | 30 | 3.0 | 9.0 | 0.00 | 0.02 | 0.00 | 81 | 1008.8 |
| 20260905130630 | 77 | 6 | 3.0 | 9.0 | 0.00 | 0.02 | 0.00 | 81 | 1008.8 |
| 20260905130123 | 77 | 45 | 2.0 | 8.0 | 0.00 | 0.02 | 0.00 | 81 | 1008.7 |
| 20260905125624 | 77 | 0 | 3.0 | 8.0 | 0.00 | 0.02 | 0.00 | 81 | 1008.7 |
| 20260905125123 | 77 | 29 | 3.0 | 9.0 | 0.00 | 0.02 | 0.00 | 81 | 1008.6 |
| 20260905124624 | 77 | 22 | 3.0 | 9.0 | 0.00 | 0.02 | 0.00 | 81 | 1008.6 |
| 20260905124122 | 78 | 50 | 2.0 | 8.0 | 0.00 | 0.02 | 0.00 | 81 | 1008.5 |
| 20260905123621 | 78 | 29 | 1.0 | 8.0 | 0.00 | 0.02 | 0.00 | 81 | 1008.6 |
| 20260905123116 | 78 | 95 | 1.0 | 8.0 | 0.00 | 0.02 | 0.00 | 82 | 1008.6 |
| 20260905122614 | 77 | 28 | 0.0 | 4.0 | 0.00 | 0.02 | 0.00 | 82 | 1008.6 |
| 20260905122112 | 77 | 68 | 0.0 | 4.0 | 0.00 | 0.02 | 0.00 | 83 | 1008.5 |
| 20260905121110 | 76 | 58 | 1.0 | 4.0 | 0.00 | 0.02 | 0.00 | 84 | 1008.6 |
| 20260905115605 | 76 | 36 | 0.0 | 3.0 | 0.00 | 0.02 | 0.00 | 85 | 1008.5 |
| 20260905115104 | 76 | 316 | 0.0 | 3.0 | 0.00 | 0.02 | 0.00 | 85 | 1008.5 |
| 20260905114605 | 76 | 320 | 0.0 | 3.0 | 0.00 | 0.02 | 0.00 | 85 | 1008.4 |
| 20260905114104 | 75 | 320 | 0.0 | 3.0 | 0.00 | 0.02 | 0.00 | 86 | 1008.4 |
| 20260905113557 | 75 | 329 | 0.0 | 3.0 | 0.00 | 0.02 | 0.00 | 86 | 1008.3 |
| 20260905113057 | 75 | 242 | 0.0 | 2.0 | 0.00 | 0.02 | 0.00 | 86 | 1008.3 |
| 20260905112052 | 75 | 26 | 0.0 | 3.0 | 0.00 | 0.02 | 0.00 | 86 | 1008.2 |
| 20260905111552 | 75 | 59 | 0.0 | 3.0 | 0.00 | 0.02 | 0.00 | 87 | 1008.1 |